Location: Gleizolles
(44.4833°N, 6.7667°E)
Time: 22:26:15
(UTC+00:00)

Explorer 7 - Pass Details

Date: 18 June 2024
Orbit: 465 x 619 km, 50.3° (Epoch: 19 July)

Event Time Altitude Azimuth Distance (km) Brightness Sun altitude
Rises 12:23:00 0° 242° (WSW) 2,631 10.6 66.7°
Reaches altitude 10° 12:25:14 10° 242° (WSW) 1,720 9.8 66.5°
Maximum altitude 12:29:08 88° 329° (NNW) 496 8.1 66.1°
Drops below altitude 10° 12:32:52 10° 63° (ENE) 1,654 9.2 65.8°
Sets 12:35:00 0° 63° (ENE) 2,519 10.0 65.5°
